FW4685 Weather Reports


Display with metric or nautical units.
time (UTC)temp
F
wind
direction
speed
MPH
gust
MPH
rain 1hr
in
rain 24hr
in
rain mn
in
humidity
%
barometer
mb
20260510065031 50 23 2.0 12.0 0.00 0.00 0.00 80 1019.6
20260510064025 50 27 2.0 10.0 0.00 0.00 0.00 82 1019.6
20260510063035 50 44 3.0 10.0 0.00 0.00 0.00 82 1019.5
20260510062035 50 32 2.0 12.0 0.00 0.00 0.00 83 1019.4
20260510061032 50 28 4.0 10.0 0.00 0.00 0.00 83 1019.4
20260510060023 50 27 5.0 15.0 0.00 0.00 0.00 83 1019.3
20260510055035 50 31 3.0 10.0 0.00 0.00 0.00 84 1019.2
20260510054031 50 23 4.0 15.0 0.00 0.00 0.00 84 1019.3
20260510053032 50 29 3.0 10.0 0.00 0.00 0.00 84 1019.4
20260510052027 49 21 5.0 12.0 0.00 0.00 0.00 84 1019.3
20260510051023 49 16 3.0 12.0 0.00 0.00 0.00 84 1019.2
20260510050023 49 25 2.0 12.0 0.00 0.00 0.00 84 1019.3
20260510045035 49 30 2.0 12.0 0.00 0.00 0.00 85 1019.2
20260510044031 49 29 2.0 7.0 0.00 0.00 0.00 85 1019.3
20260510043034 49 29 1.0 5.0 0.00 0.00 0.00 86 1019.3
20260510042031 49 24 3.0 10.0 0.00 0.00 0.00 86 1019.4
20260510041024 49 31 4.0 12.0 0.00 0.00 0.00 86 1019.3
20260510040043 49 24 4.0 12.0 0.00 0.00 0.00 86 1019.5
20260510035035 49 27 2.0 10.0 0.00 0.00 0.00 86 1019.5
20260510034035 49 16 2.0 10.0 0.00 0.00 0.00 86 1019.5
20260510033051 49 26 1.0 7.0 0.00 0.00 0.00 86 1019.7
20260510032024 49 24 4.0 12.0 0.00 0.00 0.00 86 1019.8
20260510031035 49 23 4.0 15.0 0.00 0.00 0.00 86 1019.8
20260510030050 49 25 2.0 7.0 0.00 0.00 0.00 86 1019.6
20260510025045 50 11 3.0 10.0 0.00 0.00 0.00 86 1019.6
20260510024036 50 23 2.0 10.0 0.00 0.00 0.00 86 1019.7
20260510023051 50 27 4.0 10.0 0.00 0.00 0.00 85 1019.8
20260510022027 50 18 4.0 12.0 0.00 0.00 0.00 85 1019.7
20260510021023 50 29 5.0 12.0 0.00 0.00 0.00 85 1019.7
20260510020051 51 20 5.0 15.0 0.00 0.00 0.00 84 1019.5
20260510015031 51 18 4.0 12.0 0.00 0.00 0.00 83 1019.6
20260510014043 51 31 3.0 10.0 0.00 0.00 0.00 81 1019.7
20260510013035 51 26 4.0 12.0 0.00 0.00 0.00 79 1019.7
20260510012035 52 4 2.0 7.0 0.00 0.00 0.00 77 1019.7
20260510011030 52 24 3.0 15.0 0.00 0.00 0.00 74 1019.6
20260510010026 53 25 3.0 10.0 0.00 0.00 0.00 71 1019.6
20260510005035 53 17 2.0 12.0 0.00 0.00 0.00 69 1019.7
20260510004030 54 31 3.0 12.0 0.00 0.00 0.00 68 1019.5
20260510003104 54 36 3.0 10.0 0.00 0.00 0.00 68 1019.5
20260510002035 54 29 2.0 7.0 0.00 0.00 0.00 66 1019.6
20260510001031 55 26 2.0 12.0 0.00 0.00 0.00 64 1019.7
20260510000022 55 27 2.0 10.0 0.00 0.00 0.00 63 1019.6
20260509235055 55 34 2.0 7.0 0.00 0.00 0.00 63 1019.5
20260509234110 55 15 1.0 7.0 0.00 0.00 0.00 62 1019.5
20260509233045 55 16 2.0 7.0 0.00 0.00 0.00 61 1019.3
20260509232055 55 25 2.0 7.0 0.00 0.00 0.00 61 1019.5
20260509231031 55 25 2.0 7.0 0.00 0.00 0.00 61 1019.4
20260509230050 55 30 0.0 5.0 0.00 0.00 0.00 61 1019.5
20260509225024 55 22 1.0 5.0 0.00 0.00 0.00 61 1019.4
20260509224035 55 6 1.0 5.0 0.00 0.00 0.00 61 1019.5
20260509223032 55 22 0.0 2.0 0.00 0.00 0.00 60 1019.4
20260509222035 55 15 0.0 2.0 0.00 0.00 0.00 59 1019.3
20260509221023 55 20 0.0 7.0 0.00 0.00 0.00 58 1019.4
20260509220035 55 26 0.0 2.0 0.00 0.00 0.00 57 1019.3
20260509215030 56 18 0.0 2.0 0.00 0.00 0.00 55 1019.4
20260509214023 57 6 0.0 2.0 0.00 0.00 0.00 55 1019.6
20260509213034 57 17 0.0 2.0 0.00 0.00 0.00 53 1019.6
20260509212030 58 13 0.0 2.0 0.00 0.00 0.00 52 1019.2
20260509211035 58 32 1.0 7.0 0.00 0.00 0.00 51 1019.1
20260509210035 58 59 1.0 5.0 0.00 0.00 0.00 50 1019.0
20260509205030 59 54 1.0 7.0 0.00 0.00 0.00 49 1019.0
20260509204023 59 49 1.0 5.0 0.00 0.00 0.00 49 1019.0
20260509203034 59 37 1.0 5.0 0.00 0.00 0.00 49 1019.0
20260509202031 59 66 0.0 5.0 0.00 0.00 0.00 49 1018.9
20260509201022 60 64 0.0 5.0 0.00 0.00 0.00 48 1018.7
20260509200023 60 107 1.0 5.0 0.00 0.00 0.00 48 1018.6
20260509195034 61 83 0.0 2.0 0.00 0.00 0.00 48 1018.7
20260509194029 61 83 1.0 5.0 0.00 0.00 0.00 48 1018.6
20260509193022 61 75 1.0 5.0 0.00 0.00 0.00 48 1018.5
20260509192023 62 71 2.0 7.0 0.00 0.00 0.00 47 1018.3
20260509191034 63 103 1.0 5.0 0.00 0.00 0.00 47 1018.3
20260509190031 64 83 2.0 10.0 0.00 0.00 0.00 46 1018.3
20260509185023 64 93 1.0 5.0 0.00 0.00 0.00 45 1018.3
20260509184022 65 94 1.0 5.0 0.00 0.00 0.00 44 1018.0
20260509183034 65 100 1.0 5.0 0.00 0.00 0.00 43 1018.1
20260509182050 65 76 2.0 12.0 0.00 0.00 0.00 42 1018.1
20260509181023 66 88 2.0 7.0 0.00 0.00 0.00 43 1018.0
20260509180023 67 72 2.0 7.0 0.00 0.00 0.00 43 1018.0
20260509175054 68 72 2.0 10.0 0.00 0.00 0.00 42 1017.8
20260509174029 68 51 0.0 5.0 0.00 0.00 0.00 40 1017.7
20260509173022 69 97 2.0 5.0 0.00 0.00 0.00 39 1017.6
20260509172035 69 68 0.0 5.0 0.00 0.00 0.00 40 1017.6
20260509171030 70 61 1.0 15.0 0.00 0.00 0.00 40 1017.7
20260509170022 71 73 2.0 12.0 0.00 0.00 0.00 39 1017.8
20260509165034 71 96 1.0 7.0 0.00 0.00 0.00 38 1017.8
20260509164030 72 105 1.0 7.0 0.00 0.00 0.00 37 1017.8
20260509163022 72 93 2.0 10.0 0.00 0.00 0.00 37 1017.7
20260509162035 73 103 2.0 7.0 0.00 0.00 0.00 35 1017.6
20260509161030 73 74 2.0 12.0 0.00 0.00 0.00 35 1017.9
20260509160022 73 66 2.0 7.0 0.00 0.00 0.00 36 1017.8
20260509155034 73 80 2.0 10.0 0.00 0.00 0.00 35 1017.9
20260509154035 73 93 2.0 7.0 0.00 0.00 0.00 36 1018.0
20260509153030 73 96 1.0 7.0 0.00 0.00 0.00 35 1018.1
20260509152026 73 107 2.0 7.0 0.00 0.00 0.00 36 1018.1
20260509151023 74 45 2.0 7.0 0.00 0.00 0.00 36 1018.1
20260509150035 74 87 1.0 7.0 0.00 0.00 0.00 36 1018.0
20260509145050 74 77 2.0 10.0 0.00 0.00 0.00 36 1018.0
20260509144022 74 106 2.0 10.0 0.00 0.00 0.00 36 1018.0
20260509143034 74 57 2.0 12.0 0.00 0.00 0.00 37 1017.7
20260509142030 74 83 2.0 5.0 0.00 0.00 0.00 36 1017.8
20260509141022 73 100 2.0 7.0 0.00 0.00 0.00 35 1017.8
20260509140054 73 68 1.0 7.0 0.00 0.00 0.00 38 1017.8
20260509135030 73 79 2.0 7.0 0.00 0.00 0.00 37 1018.0
20260509134029 72 80 2.0 12.0 0.00 0.00 0.00 38 1018.0
20260509133023 72 38 2.0 12.0 0.00 0.00 0.00 39 1017.9
20260509132056 72 46 2.0 10.0 0.00 0.00 0.00 40 1018.0
20260509131035 72 41 2.0 10.0 0.00 0.00 0.00 39 1018.2
20260509130030 73 74 1.0 10.0 0.00 0.00 0.00 39 1018.2
20260509125022 72 95 2.0 7.0 0.00 0.00 0.00 41 1018.3
20260509124051 71 79 2.0 10.0 0.00 0.00 0.00 41 1018.4
20260509123029 70 102 1.0 5.0 0.00 0.00 0.00 41 1018.6
20260509122023 70 52 1.0 12.0 0.00 0.00 0.00 46 1018.7
20260509121053 70 27 4.0 12.0 0.00 0.00 0.00 47 1018.7
20260509120051 70 54 1.0 7.0 0.00 0.00 0.00 47 1018.8
20260509115029 69 49 2.0 7.0 0.00 0.00 0.00 47 1018.9
20260509114103 69 35 1.0 7.0 0.00 0.00 0.00 49 1018.9
20260509113034 69 50 2.0 10.0 0.00 0.00 0.00 49 1019.3
20260509112030 68 94 1.0 5.0 0.00 0.00 0.00 50 1019.3
20260509111043 68 61 2.0 10.0 0.00 0.00 0.00 51 1019.3
20260509110035 69 47 2.0 12.0 0.00 0.00 0.00 50 1019.5
20260509105029 69 64 2.0 10.0 0.00 0.00 0.00 52 1019.4
20260509104026 68 81 1.0 5.0 0.00 0.00 0.00 50 1019.5
20260509103022 67 92 1.0 7.0 0.00 0.00 0.00 51 1019.6
20260509102033 66 31 2.0 7.0 0.00 0.00 0.00 55 1019.7
20260509101034 66 22 3.0 10.0 0.00 0.00 0.00 56 1019.8
20260509100029 66 41 2.0 10.0 0.00 0.00 0.00 57 1019.7
20260509095023 65 38 3.0 10.0 0.00 0.00 0.00 58 1019.8
20260509094035 64 18 2.0 7.0 0.00 0.00 0.00 58 1019.9
20260509093050 63 67 1.0 5.0 0.00 0.00 0.00 61 1020.0
20260509092049 62 35 1.0 7.0 0.00 0.00 0.00 64 1020.0
20260509091022 62 29 1.0 10.0 0.00 0.00 0.00 66 1020.2
20260509090033 62 29 3.0 7.0 0.00 0.00 0.00 66 1020.2
20260509085030 61 57 1.0 5.0 0.00 0.00 0.00 67 1020.1
20260509084026 60 95 1.0 5.0 0.00 0.00 0.00 68 1020.2
20260509083043 59 82 1.0 5.0 0.00 0.00 0.00 71 1020.3
20260509082035 58 13 2.0 7.0 0.00 0.00 0.00 73 1020.2
20260509081030 57 32 1.0 12.0 0.00 0.00 0.00 74 1020.3
20260509080042 57 76 1.0 7.0 0.00 0.00 0.00 76 1020.4
20260509075054 56 35 1.0 5.0 0.00 0.00 0.00 78 1020.4
20260509074030 55 84 0.0 5.0 0.00 0.00 0.00 79 1020.4
20260509073021 55 22 1.0 7.0 0.00 0.00 0.00 81 1020.2
20260509072022 54 22 1.0 7.0 0.00 0.00 0.00 82 1020.2
20260509071021 53 21 1.0 7.0 0.00 0.00 0.00 84 1020.2
20260509070055 52 37 0.0 5.0 0.00 0.00 0.00 86 1020.0